Wind_Speed
9 10 12 12 14 16 20 32 32 42 49 45 40 34 30 34 35 33 39 41 43 42 42 39 38 38 38 41 44 46 45 44 48 50 51 51 55 57 60 59 59 61 63 60 56 54 50 53 51 57 61 61 66 69
13 10 12 15 17 15 17 22 32 34 44 55 45 29 33 26 28 35 32 33 38 41 44 40 39 38 38 40 41 43 44 45 45 45 47 49 50 52 52 54 53 53 53 55 56 52 49 49 49 51 53 52 50 49
15 17 18 18 20 18 18 19 23 31 36 40 52 46 33 31 26 28 32 34 35 35 34 34 39 40 40 41 42 43 42 43 42 44 45 45 46 47 46 46 47 44 47 52 53 50 51 54 56 59 61 63 65 66
20 24 27 27 24 19 16 18 20 25 27 35 51 51 45 39 28 33 38 30 31 33 36 35 36 40 44 48 47 46 45 42 42 39 40 40 41 41 42 43 43 42 47 48 50 51 55 54 57 61 62 63 65 67
8 8 9 7 9 11 14 17 20 22 24 26 33 52 51 47 46 38 35 32 31 32 34 34 33 34 36 38 38 39 40 41 41 42 45 44 42 39 39 40 37 36 43 46 49 52 59 61 65 69 70 72 75 74
15 13 12 8 6 3 5 5 9 13 19 26 29 34 43 48 48 44 42 44 36 34 37 38 37 38 39 40 40 39 36 33 34 35 38 36 32 38 41 42 35 38 43 52 57 60 63 66 64 63 58 54 52 52
17 17 17 13 11 8 3 2 1 4 8 9 10 13 23 37 35 38 43 47 45 41 40 41 42 41 43 42 44 46 46 42 39 34 36 40 42 44 46 47 38 44 51 55 55 51 52 52 47 40 34 28 26 27
16 16 16 16 15 13 9 5 2 3 5 6 8 12 16 20 28 33 32 35 40 42 42 45 45 41 32 30 28 27 31 31 31 34 36 37 39 42 44 39 40 44 43 40 42 43 42 39 34 32 27 24 24 27
17 16 15 14 14 14 14 13 7 1 4 7 10 13 18 21 23 24 26 29 30 33 35 33 29 23 20 21 21 23 28 29 33 36 37 42 45 46 42 37 32 35 34 36 36 35 31 30 28 29 29 29 34 35
13 13 14 15 15 14 13 13 12 12 8 3 3 5 6 8 14 16 19 19 21 23 21 13 16 22 21 26 25 30 34 38 44 44 44 44 42 34 25 27 32 36 37 35 32 30 25 27 29 29 31 35 34 34
10 10 10 11 11 11 10 10 10 9 7 6 6 6 4 3 2 1 5 8 10 11 13 14 21 25 27 31 33 38 39 40 41 42 40 36 31 25 28 31 33 35 37 37 36 30 29 31 34 35 37 37 35 33
13 11 11 10 8 8 8 7 6 6 5 4 3 2 2 3 5 6 8 8 9 9 12 20 25 27 30 32 35 38 39 40 39 39 41 40 38 38 37 37 38 37 38 39 40 38 35 34 35 36 37 37 37 37
16 16 14 14 13 10 9 9 8 8 8 9 10 9 9 8 7 9 12 15 15 16 17 19 22 25 28 31 34 37 41 44 45 47 48 49 48 47 43 38 38 39 41 42 44 44 43 42 41 41 42 41 41 41
19 19 19 19 18 17 15 14 13 14 14 14 15 16 15 14 11 14 16 17 18 19 21 24 26 29 31 34 37 41 45 48 52 54 54 53 52 50 49 47 46 46 46 45 44 44 45 45 47 48 48 48 48 45
22 22 22 22 22 22 21 20 20 20 20 21 21 22 20 18 19 21 22 23 24 25 26 28 29 32 34 37 40 43 47 51 52 52 49 50 50 49 49 50 50 49 49 51 52 54 54 52 53 53 54 54 54 50
26 26 25 24 24 24 24 24 24 24 25 25 26 25 23 25 26 27 28 29 30 31 33 35 37 40 42 45 48 50 52 52 51 50 51 53 53 54 54 53 53 53 53 54 53 52 52 51 51 52 53 55 58 56
33 30 29 28 27 25 26 26 26 27 29 29 27 27 29 30 31 31 32 33 34 36 37 39 41 43 45 48 49 47 46 44 44 44 45 46 46 46 46 47 48 49 50 51 51 53 53 54 54 52 51 51 53 52
38 34 33 31 29 27 26 26 27 28 28 28 29 29 30 31 32 33 34 34 36 37 39 40 43 45 46 45 42 40 40 40 40 40 40 42 42 41 39 38 39 40 41 42 44 47 50 53 53 52 50 48 47 48
34 34 32 30 29 28 28 27 29 29 28 29 29 30 30 31 32 33 34 35 36 38 39 42 44 42 39 38 36 34 33 33 31 33 34 35 33 33 33 33 32 31 30 32 32 32 32 34 37 41 44 44 43 43
29 30 30 29 29 30 30 30 29 28 28 29 30 30 31 31 32 33 34 35 36 38 40 38 36 34 33 31 29 29 30 30 30 29 30 29 29 29 29 24 25 26 27 27 27 26 25 24 26 26 27 30 33 36
26 26 27 27 27 28 28 27 27 28 28 29 29 29 30 31 32 33 34 35 35 34 31 30 29 28 27 25 25 26 28 27 27 25 22 23 27 27 28 30 30 30 30 30 28 27 29 28 26 26 26 26 27 25
27 26 25 25 25 26 26 27 27 28 28 28 29 30 31 32 33 33 33 30 27 26 25 25 24 23 22 22 23 23 23 23 22 19 17 18 21 25 27 30 31 30 29 29 27 24 22 22 22 23 24 26 27 28
25 27 28 27 26 25 25 25 26 27 28 29 30 31 31 31 30 29 25 23 22 22 21 20 20 20 20 20 21 21 21 20 19 18 19 22 25 25 27 30 29 28 26 22 20 18 20 19 18 20 22 25 27 29
22 22 24 24 25 26 27 28 28 28 29 29 29 29 28 26 23 20 19 19 19 18 16 16 18 19 19 18 18 18 19 19 19 18 19 22 23 26 28 28 30 31 24 18 20 23 25 25 27 31 33 34 36 30
19 17 17 18 20 21 23 24 24 24 24 24 22 21 19 18 16 16 16 17 17 16 15 15 16 17 19 20 18 16 15 16 18 20 20 21 23 26 27 29 33 31 26 19 21 25 26 28 31 33 38 34 27 22
22 19 17 17 16 16 17 16 17 17 17 17 16 16 15 14 14 13 13 14 15 16 16 17 18 18 16 16 17 17 17 17 18 19 20 24 25 24 23 24 24 26 22 21 23 26 29 30 33 33 28 24 18 14
22 20 19 19 18 17 16 16 16 16 15 15 14 14 13 13 12 12 12 12 12 13 15 16 17 18 18 19 18 18 19 19 20 21 22 24 24 22 22 22 21 19 21 24 27 29 28 30 25 21 19 16 11 10
23 21 19 18 18 17 16 16 15 15 14 14 14 14 14 15 14 14 14 14 14 15 15 16 16 17 16 17 18 20 20 21 22 21 23 23 22 22 25 28 27 25 26 27 28 27 24 16 16 15 14 15 14 12
26 22 21 18 17 16 17 16 16 15 15 15 15 16 16 17 18 19 19 19 19 18 18 18 16 16 16 15 15 15 15 14 16 18 20 21 23 26 28 27 26 25 27 28 23 14 9 10 11 12 13 13 13 12
27 24 20 19 17 15 15 15 16 16 16 16 17 19 20 20 21 22 22 22 21 21 20 20 20 18 17 17 17 15 12 13 13 14 17 19 18 19 21 22 26 25 23 16 10 9 9 10 10 11 12 12 12 11
30 24 20 18 16 14 12 11 12 13 14 16 17 20 21 22 23 23 24 24 24 23 22 21 20 19 17 16 16 17 18 17 17 18 19 19 17 19 19 22 20 20 17 14 12 10 10 10 11 12 12 12 13 12
32 21 16 17 17 16 16 17 18 19 21 21 21 21 22 22 23 24 23 22 21 21 21 20 19 18 15 14 13 13 15 16 16 14 18 17 15 16 17 18 14 14 12 12 11 9 9 10 11 11 12 12 12 12
28 17 13 13 15 17 19 20 21 22 23 24 23 23 23 22 22 22 21 21 20 19 18 18 18 17 16 14 13 13 13 13 10 12 14 13 12 13 14 16 13 12 10 9 8 8 8 10 11 11 12 12 12 13
Wind_Direction
204 225 244 261 264 268 241 223 220 218 214 219 221 227 230 238 233 233 234 237 237 240 238 238 241 247 249 250 249 249 250 252 254 256 258 259 259 260 260 262 265 266 266 268 271 272 267 263 260 263 267 268 268 269
209 234 254 265 272 269 250 235 228 223 222 217 212 217 222 229 235 232 230 231 232 236 238 236 241 244 242 247 252 255 257 259 261 265 268 269 270 267 267 266 268 270 271 270 269 269 267 263 259 261 262 261 263 264
260 271 275 275 274 278 255 243 230 227 226 225 216 216 217 225 223 227 231 233 237 241 241 243 238 240 243 249 251 254 254 258 263 268 269 269 271 273 272 271 269 271 273 275 273 277 282 279 278 278 277 276 275 273
274 279 283 280 276 271 255 243 238 229 232 227 215 217 222 223 225 244 241 253 251 253 251 247 249 255 260 261 262 260 262 266 266 265 261 263 265 265 268 270 269 274 276 278 277 279 277 280 279 276 275 277 278 280
337 322 320 306 270 258 251 247 239 233 229 225 225 224 227 232 234 237 242 241 246 251 253 254 255 261 266 266 267 268 268 267 266 261 262 268 271 271 269 270 273 276 276 276 278 276 278 279 278 278 278 279 280 281
24 20 19 6 360 324 247 259 235 223 229 231 228 228 233 237 238 236 242 240 246 249 253 253 257 264 270 272 268 264 261 263 269 270 274 278 275 266 265 264 265 275 276 278 281 282 284 287 287 287 286 282 276 274
26 30 35 33 33 32 32 310 290 242 234 231 227 211 228 233 234 239 241 243 252 258 262 264 266 269 275 271 269 271 274 270 272 268 258 260 263 272 273 277 283 281 281 281 285 289 290 286 288 292 295 296 298 291
22 24 26 30 34 36 34 27 17 239 232 211 204 207 220 235 242 247 249 251 255 260 265 270 278 281 272 262 262 262 255 258 257 259 257 256 264 274 279 290 285 277 279 288 295 292 287 282 286 289 292 290 294 299
24 29 28 24 26 31 36 41 41 60 210 214 225 233 233 236 240 245 249 252 254 261 267 268 269 269 259 249 252 245 251 254 257 260 269 273 277 282 290 290 283 284 290 300 305 305 287 280 274 278 279 290 300 299
21 30 29 30 31 29 32 39 43 49 56 75 204 219 238 243 245 249 254 260 258 261 263 247 263 262 259 250 254 258 258 262 269 271 277 282 287 294 287 284 288 289 291 296 304 305 298 279 273 279 286 293 301 302
351 359 9 9 11 15 19 25 31 38 50 60 63 62 67 72 78 204 241 259 252 240 232 241 254 262 255 256 258 260 267 274 282 285 285 286 289 291 285 284 282 283 287 288 292 292 285 281 279 283 287 294 294 300
318 319 325 332 338 348 346 352 354 349 355 360 355 341 311 294 297 280 272 273 268 247 232 228 235 248 255 260 265 273 278 282 285 290 289 290 292 291 289 288 286 284 283 284 286 286 283 281 281 282 284 284 287 293
301 302 301 301 300 305 309 311 310 310 308 311 307 303 297 294 293 265 262 269 277 282 276 273 268 269 273 275 277 278 281 284 288 287 289 290 292 292 291 287 282 279 277 277 277 277 277 276 275 276 278 278 281 285
291 291 292 294 294 294 295 295 295 295 293 291 290 292 291 299 286 273 278 277 276 277 276 275 276 275 276 276 277 279 282 284 284 286 288 289 288 285 283 281 279 278 277 275 272 273 274 273 272 271 272 273 275 278
282 282 282 284 286 287 285 286 286 285 284 284 284 286 291 287 282 281 282 282 283 285 285 283 281 283 281 281 282 283 282 284 287 291 291 290 289 288 287 286 285 282 281 280 279 280 280 274 269 268 270 271 272 271
279 281 282 282 281 279 279 279 278 278 279 280 282 285 283 278 278 279 280 282 284 285 286 286 288 290 291 291 293 294 293 293 292 289 286 285 284 285 285 286 286 286 284 283 282 280 278 277 272 269 268 269 269 271
279 284 283 283 283 282 277 274 273 274 275 278 280 276 278 280 281 281 281 282 284 285 287 288 289 290 291 292 292 291 288 287 287 287 287 287 287 287 288 287 287 286 285 284 281 279 278 276 273 272 269 268 268 269
281 281 280 281 280 279 276 273 273 273 274 275 275 276 277 279 280 281 283 284 284 286 287 288 290 293 292 292 291 290 289 289 289 289 288 287 289 290 290 289 288 289 291 292 289 285 280 276 274 272 272 271 270 270
280 280 279 277 275 274 274 275 276 274 274 273 274 276 277 279 280 282 283 285 286 287 289 292 292 293 292 291 291 291 292 293 293 293 294 295 296 295 294 295 299 302 301 298 298 298 296 291 282 274 271 269 268 268
280 277 275 273 272 274 277 277 275 273 273 273 275 276 278 280 282 284 285 287 288 290 292 292 292 292 292 293 294 294 295 296 297 298 297 299 297 296 302 307 305 304 305 304 306 307 306 303 299 297 289 280 274 270
285 282 279 279 278 277 275 276 275 274 274 274 276 278 280 282 284 285 286 289 291 291 292 292 292 293 294 296 296 297 297 300 300 301 299 298 295 300 305 307 308 309 308 307 307 305 302 298 296 293 292 290 287 283
281 282 281 279 279 280 280 279 279 278 278 277 278 280 281 283 285 287 290 288 287 289 290 292 294 297 298 299 301 302 302 300 301 302 304 301 297 302 306 307 311 311 312 313 307 307 305 306 307 307 305 301 293 284
286 280 277 276 277 277 278 277 277 276 277 278 279 281 282 283 285 286 282 282 285 288 291 295 299 299 300 305 307 308 308 309 309 308 317 316 313 312 311 312 312 314 322 306 306 310 311 310 314 315 313 314 313 294
301 291 285 280 276 277 276 277 277 277 278 278 280 281 282 282 279 274 276 282 285 285 289 299 305 305 303 307 309 306 306 309 308 307 319 315 313 313 317 318 317 317 326 300 306 319 319 310 305 306 305 305 303 294
322 314 304 295 288 284 281 280 280 280 281 282 281 279 274 271 269 273 279 284 283 279 283 296 307 313 308 309 312 312 311 309 306 306 311 317 323 322 322 324 321 323 328 312 310 313 314 312 313 313 312 308 301 282
322 318 310 304 299 295 291 289 288 288 286 284 280 273 268 265 268 275 283 291 288 283 284 290 300 310 312 307 312 320 323 323 319 316 320 325 325 325 327 325 318 318 318 310 310 315 320 321 319 318 316 314 308 293
314 313 310 306 300 295 292 289 288 286 285 283 278 272 264 263 266 272 281 291 301 299 295 293 294 300 311 316 316 321 322 322 322 324 323 320 321 324 329 336 334 324 312 313 319 324 325 325 329 336 339 337 324 312
304 300 300 300 296 293 290 287 285 283 281 277 274 269 265 263 264 269 276 285 292 296 301 302 298 296 300 313 319 316 315 316 318 320 324 325 332 338 343 344 338 331 329 324 326 328 331 344 356 10 23 33 39 43
321 300 289 290 290 289 287 285 282 279 276 273 271 269 267 266 267 270 274 278 283 289 295 296 296 297 292 295 306 301 296 306 320 324 333 338 337 338 339 339 340 334 323 323 329 342 8 22 31 37 40 42 40 40
322 310 287 278 280 282 284 282 279 277 276 274 273 273 271 271 272 272 273 275 277 281 287 293 296 298 300 298 308 316 315 310 316 331 341 340 334 335 342 342 339 343 351 3 31 45 47 43 42 39 34 35 41 43
323 313 288 270 268 271 275 281 286 287 288 288 285 282 279 277 275 274 274 275 277 278 279 280 283 289 293 292 298 316 327 329 334 336 336 339 341 348 347 348 358 11 24 38 46 52 54 42 34 32 43 43 47 53
326 312 282 265 263 262 266 274 282 288 291 292 291 290 287 281 276 274 274 276 277 277 276 276 275 277 280 284 285 299 313 313 308 323 335 336 340 345 349 355 3 15 23 28 38 51 46 38 36 49 50 53 53 47
326 310 283 266 268 272 276 279 282 286 290 292 293 291 288 282 275 272 270 270 271 273 275 272 270 271 274 278 277 282 299 304 310 327 327 331 345 350 354 357 360 6 17 32 46 47 47 51 60 60 56 50 51 50
Height
5440 5442 5443 5444 5445 5445 5446 5450 5453 5458 5462 5467 5474 5479 5483 5488 5492 5496 5501 5504 5507 5510 5513 5517 5520 5524 5524 5525 5528 5529 5532 5535 5532 5536 5537 5538 5539 5541 5544 5544 5541 5540 5539 5542 5539 5537 5537 5535 5533 5531 5527 5529 5524 5523
5440 5441 5441 5442 5441 5441 5442 5444 5447 5450 5454 5460 5466 5471 5476 5480 5484 5488 5492 5494 5497 5500 5506 5507 5511 5512 5512 5514 5517 5518 5520 5523 5523 5523 5525 5522 5526 5527 5529 5530 5528 5530 5527 5525 5527 5526 5523 5520 5516 5515 5511 5510 5508 5507
5440 5439 5438 5437 5437 5436 5436 5438 5440 5444 5448 5452 5457 5464 5468 5473 5476 5479 5483 5485 5487 5491 5495 5501 5504 5501 5503 5504 5504 5507 5511 5510 5512 5511 5512 5513 5512 5515 5515 5516 5516 5515 5513 5511 5508 5512 5505 5500 5501 5495 5493 5492 5490 5488
5437 5435 5433 5431 5430 5430 5431 5432 5434 5437 5440 5444 5449 5455 5461 5465 5469 5471 5475 5478 5479 5481 5485 5491 5491 5492 5492 5493 5495 5496 5499 5500 5499 5499 5499 5500 5502 5503 5503 5503 5505 5506 5502 5498 5493 5496 5485 5492 5486 5479 5478 5476 5473 5470
5434 5432 5429 5426 5425 5425 5425 5427 5428 5430 5433 5437 5442 5448 5452 5456 5460 5464 5468 5470 5471 5473 5477 5481 5482 5483 5484 5485 5485 5486 5487 5487 5487 5488 5488 5489 5490 5490 5490 5490 5493 5497 5490 5483 5478 5478 5471 5473 5469 5465 5463 5460 5456 5452
5436 5433 5430 5427 5425 5423 5423 5424 5424 5426 5428 5432 5436 5439 5444 5448 5452 5455 5459 5463 5463 5464 5466 5470 5474 5475 5475 5475 5476 5477 5477 5476 5477 5477 5478 5478 5478 5478 5477 5478 5490 5483 5474 5467 5463 5460 5456 5454 5451 5446 5441 5437 5434 5431
5440 5436 5433 5430 5427 5426 5425 5424 5425 5426 5427 5429 5431 5435 5438 5442 5445 5449 5453 5455 5455 5456 5458 5459 5462 5466 5466 5465 5466 5466 5465 5466 5467 5469 5471 5470 5468 5464 5465 5469 5480 5465 5458 5453 5449 5444 5441 5437 5435 5432 5429 5426 5423 5421
5442 5439 5437 5434 5431 5429 5427 5426 5426 5426 5427 5429 5431 5433 5435 5437 5439 5442 5445 5446 5447 5448 5449 5449 5453 5456 5455 5454 5454 5455 5456 5456 5457 5457 5459 5459 5457 5454 5454 5460 5454 5448 5444 5441 5437 5431 5427 5425 5424 5423 5421 5419 5417 5415
5445 5442 5440 5437 5435 5433 5431 5429 5427 5427 5427 5428 5430 5432 5433 5434 5435 5436 5438 5439 5441 5442 5441 5444 5446 5447 5446 5446 5447 5448 5447 5447 5447 5448 5450 5448 5446 5444 5446 5442 5437 5435 5433 5430 5425 5418 5414 5414 5415 5415 5413 5411 5409 5406
5448 5445 5443 5440 5438 5436 5434 5433 5431 5430 5429 5429 5429 5430 5430 5430 5430 5432 5433 5433 5434 5434 5436 5438 5440 5440 5441 5441 5440 5440 5439 5437 5434 5438 5437 5434 5432 5435 5432 5429 5426 5423 5422 5420 5416 5411 5408 5407 5407 5405 5404 5402 5399 5396
5449 5446 5444 5442 5440 5438 5437 5435 5434 5433 5432 5432 5431 5431 5431 5431 5431 5431 5431 5431 5431 5432 5432 5433 5433 5433 5434 5432 5432 5429 5427 5426 5424 5426 5426 5422 5422 5426 5423 5421 5418 5415 5412 5409 5406 5404 5401 5399 5397 5396 5394 5392 5390 5387
5448 5446 5444 5442 5440 5439 5437 5436 5435 5434 5434 5433 5432 5431 5431 5431 5430 5430 5429 5429 5428 5428 5428 5426 5425 5424 5424 5424 5423 5422 5421 5418 5416 5415 5413 5412 5415 5413 5411 5409 5406 5404 5401 5398 5395 5393 5391 5389 5387 5385 5383 5381 5379 5377
5446 5443 5442 5441 5439 5437 5436 5434 5433 5432 5431 5431 5430 5430 5430 5430 5429 5428 5426 5425 5425 5424 5423 5423 5422 5421 5419 5418 5415 5413 5410 5408 5406 5403 5401 5401 5400 5398 5396 5394 5391 5389 5387 5385 5383 5380 5378 5376 5375 5373 5371 5369 5368 5366
5441 5439 5438 5436 5435 5434 5432 5431 5431 5430 5428 5427 5426 5426 5425 5426 5425 5423 5422 5421 5420 5419 5417 5416 5414 5413 5411 5408 5406 5401 5398 5394 5391 5389 5388 5388 5385 5382 5380 5378 5376 5374 5371 5369 5368 5366 5364 5362 5360 5358 5357 5356 5354 5353
5434 5433 5432 5430 5429 5428 5427 5426 5425 5423 5423 5422 5421 5420 5420 5420 5418 5417 5416 5414 5413 5411 5410 5408 5406 5404 5400 5397 5394 5390 5386 5382 5379 5376 5374 5370 5367 5364 5362 5360 5358 5356 5354 5352 5350 5348 5346 5344 5343 5342 5339 5338 5337 5338
5426 5425 5424 5423 5422 5420 5420 5418 5417 5416 5415 5414 5413 5414 5413 5411 5410 5409 5407 5406 5404 5402 5400 5397 5394 5391 5388 5384 5380 5375 5372 5368 5365 5361 5358 5354 5351 5348 5346 5343 5340 5337 5335 5332 5329 5327 5325 5323 5322 5323 5322 5320 5318 5319
5416 5415 5414 5413 5412 5411 5410 5409 5408 5407 5406 5406 5405 5404 5402 5401 5400 5398 5397 5396 5394 5391 5388 5385 5382 5379 5375 5370 5367 5363 5358 5354 5351 5347 5343 5339 5336 5334 5331 5328 5324 5321 5317 5314 5311 5307 5305 5303 5301 5302 5302 5301 5299 5300
5403 5404 5403 5402 5401 5400 5400 5399 5398 5397 5396 5396 5394 5393 5392 5391 5389 5388 5386 5384 5382 5380 5377 5374 5370 5366 5361 5357 5353 5349 5345 5341 5338 5335 5330 5326 5323 5321 5317 5314 5310 5306 5302 5298 5292 5288 5285 5283 5282 5281 5281 5282 5283 5283
5391 5391 5391 5391 5390 5390 5389 5389 5387 5386 5386 5385 5384 5383 5382 5380 5379 5377 5375 5373 5371 5368 5365 5361 5357 5353 5349 5345 5341 5337 5334 5331 5328 5323 5319 5315 5312 5309 5305 5302 5299 5295 5291 5286 5281 5275 5271 5266 5263 5262 5263 5264 5265 5265
5381 5380 5379 5379 5379 5378 5377 5377 5376 5375 5375 5374 5373 5372 5371 5370 5368 5366 5364 5362 5360 5357 5353 5349 5345 5342 5338 5335 5332 5328 5324 5321 5318 5315 5311 5307 5303 5300 5296 5293 5290 5286 5282 5277 5273 5268 5264 5260 5255 5252 5251 5250 5250 5251
5371 5370 5369 5369 5367 5367 5366 5366 5365 5365 5364 5363 5362 5361 5360 5359 5358 5356 5354 5351 5348 5345 5342 5339 5336 5333 5329 5327 5324 5320 5316 5313 5309 5307 5305 5302 5296 5293 5289 5285 5281 5277 5273 5268 5265 5261 5255 5252 5250 5247 5245 5243 5241 5240
5363 5361 5360 5359 5358 5357 5357 5355 5355 5354 5354 5353 5352 5351 5350 5349 5347 5345 5342 5340 5338 5336 5333 5331 5328 5325 5322 5320 5317 5313 5310 5306 5303 5300 5298 5295 5292 5288 5283 5278 5274 5270 5265 5260 5256 5252 5249 5245 5242 5239 5236 5234 5232 5230
5352 5351 5350 5349 5349 5348 5348 5346 5346 5345 5344 5343 5342 5341 5339 5338 5336 5335 5333 5331 5330 5328 5326 5323 5321 5318 5316 5313 5310 5307 5304 5300 5298 5295 5293 5289 5285 5281 5277 5271 5266 5263 5259 5254 5250 5247 5244 5240 5237 5233 5230 5227 5224 5220
5344 5342 5340 5339 5339 5338 5337 5336 5335 5335 5333 5332 5331 5330 5329 5328 5327 5326 5325 5324 5323 5321 5320 5318 5315 5312 5310 5309 5306 5303 5299 5296 5293 5290 5288 5284 5280 5275 5270 5265 5260 5254 5252 5248 5245 5241 5237 5234 5230 5226 5222 5217 5213 5210
5340 5337 5335 5332 5330 5330 5328 5327 5326 5325 5324 5323 5322 5321 5320 5320 5320 5320 5319 5318 5316 5315 5314 5313 5311 5309 5305 5302 5300 5298 5295 5292 5289 5286 5283 5279 5275 5270 5265 5259 5252 5246 5245 5242 5239 5235 5232 5227 5222 5216 5210 5205 5200 5198
5335 5332 5330 5327 5325 5323 5322 5320 5319 5318 5317 5316 5315 5314 5314 5314 5314 5314 5313 5312 5310 5309 5309 5307 5305 5303 5302 5299 5296 5293 5289 5287 5284 5281 5278 5274 5270 5266 5262 5257 5251 5244 5240 5237 5234 5230 5225 5219 5213 5207 5201 5196 5193 5192
5330 5326 5324 5321 5319 5318 5316 5315 5314 5313 5311 5311 5310 5309 5309 5309 5309 5309 5308 5307 5306 5305 5303 5302 5300 5299 5296 5293 5290 5288 5285 5283 5280 5277 5273 5270 5266 5261 5257 5252 5247 5242 5237 5233 5228 5223 5218 5212 5207 5201 5196 5192 5189 5189
5322 5319 5317 5316 5314 5312 5311 5309 5308 5307 5306 5306 5306 5305 5305 5305 5305 5304 5304 5303 5302 5300 5299 5297 5295 5293 5292 5290 5287 5284 5281 5278 5275 5272 5268 5264 5260 5256 5251 5246 5241 5236 5231 5227 5222 5218 5213 5209 5205 5201 5198 5195 5192 5190
5315 5312 5310 5309 5307 5306 5305 5304 5303 5302 5302 5301 5301 5300 5300 5299 5299 5298 5298 5297 5296 5295 5294 5292 5291 5289 5287 5286 5284 5281 5279 5276 5273 5269 5265 5261 5256 5251 5247 5243 5238 5233 5228 5222 5217 5214 5212 5210 5207 5205 5202 5200 5198 5196
5309 5304 5302 5301 5301 5300 5299 5298 5297 5297 5296 5296 5295 5294 5294 5293 5293 5292 5291 5291 5290 5289 5288 5286 5285 5283 5281 5280 5278 5276 5274 5272 5270 5267 5263 5260 5256 5252 5247 5243 5238 5231 5224 5219 5216 5215 5214 5213 5211 5209 5206 5204 5202 5200
5300 5297 5294 5294 5294 5294 5293 5293 5292 5291 5290 5289 5288 5287 5286 5285 5285 5284 5283 5283 5282 5281 5281 5280 5279 5278 5277 5275 5274 5271 5268 5266 5264 5262 5260 5257 5253 5249 5246 5241 5236 5231 5227 5223 5221 5219 5218 5217 5215 5212 5210 5208 5206 5204
5293 5289 5287 5286 5287 5288 5288 5287 5286 5285 5284 5283 5281 5280 5278 5277 5276 5275 5275 5275 5274 5274 5273 5273 5272 5272 5272 5271 5270 5269 5267 5265 5263 5260 5258 5254 5251 5248 5245 5241 5237 5234 5231 5228 5226 5223 5222 5220 5218 5216 5215 5213 5211 5210
5286 5283 5281 5281 5281 5281 5281 5281 5280 5278 5276 5275 5273 5271 5270 5268 5267 5267 5267 5267 5267 5267 5266 5266 5266 5265 5265 5265 5265 5265 5264 5262 5259 5258 5256 5253 5250 5247 5244 5241 5238 5235 5233 5230 5228 5227 5225 5224 5223 5221 5220 5218 5216 5214